RH
13 14 20 48 83 84 83 83 78 78 66 27 50 79 89 86 90 85 85 80 76 74 90 80 78 75 70 65 58 70 81 48 50
15 16 19 32 44 70 60 67 75 52 29 40 58 85 87 82 87 88 90 86 79 88 95 88 88 90 87 89 90 78 64 75 88
17 18 20 24 32 44 39 37 31 36 45 51 61 84 90 91 90 91 91 87 84 72 73 75 74 74 72 76 86 92 94 89 77
19 20 20 23 25 26 27 32 44 49 55 64 70 82 90 88 90 86 87 85 87 75 72 74 85 82 72 65 66 66 68 74 86
24 28 32 33 35 38 42 46 50 57 67 71 79 84 85 85 85 86 86 88 77 56 82 78 67 65 52 46 45 44 44 45 51
28 32 35 37 40 44 47 52 59 67 69 72 78 75 73 75 79 79 72 62 59 55 52 52 52 49 47 47 46 44 41 38 38
33 35 37 42 44 47 51 56 64 70 71 70 70 69 69 64 62 58 54 50 53 70 44 46 47 47 41 37 32 29 27 26 24
41 41 41 45 47 51 54 63 70 71 72 70 72 73 62 58 52 49 44 40 56 56 37 42 41 39 33 29 27 27 28 26 24
52 44 48 49 51 60 67 78 80 77 75 74 74 71 44 38 36 33 32 32 37 33 34 34 32 28 28 29 27 24 19 16 14
61 55 54 57 60 73 80 82 86 84 79 75 78 42 33 35 30 23 21 23 26 30 30 28 26 26 25 22 19 18 16 13 10
61 69 64 70 71 80 79 82 85 83 82 80 60 35 36 29 20 16 16 22 26 27 26 24 23 20 18 14 14 13 12 10 8
64 61 72 75 75 82 83 88 87 83 84 75 36 38 31 23 16 14 16 18 22 23 23 21 18 13 11 9 9 9 9 8 8
70 68 72 76 75 84 88 86 81 81 76 36 39 33 26 17 13 12 16 17 19 19 19 17 15 12 10 9 10 11 10 9 9
74 71 80 84 79 84 81 79 78 79 37 39 38 30 21 16 13 13 15 18 17 15 16 16 13 12 11 12 12 13 13 11 10
76 80 84 84 82 86 79 77 76 65 36 39 36 27 21 16 15 16 20 19 18 18 18 16 16 17 16 15 14 14 13 12 12
76 82 86 87 84 86 77 79 77 44 37 39 34 27 21 21 18 20 22 23 22 20 18 18 19 18 16 16 16 14 13 13 15
77 79 87 89 90 90 80 84 75 44 38 40 36 25 28 25 18 23 25 21 24 23 21 21 22 20 17 16 14 15 14 14 33
81 78 80 89 91 89 83 86 75 47 42 41 34 24 19 18 16 16 19 23 28 24 23 24 23 20 17 15 14 15 15 21 58
71 84 84 88 96 90 87 87 82 54 45 40 37 25 23 14 12 16 18 22 26 24 22 20 19 18 15 15 17 17 20 34 76
70 70 87 90 95 90 89 90 86 53 38 42 36 27 23 14 13 14 16 18 19 19 18 18 16 15 16 16 17 20 26 32 77
Wind_Speed
8 9 12 15 14 13 13 11 9 6 1 7 10 10 9 8 8 7 8 8 9 7 6 6 5 4 3 3 3 2 3 2 3
9 10 11 12 12 12 9 8 7 5 7 9 10 11 8 7 6 5 6 6 6 4 3 4 4 4 5 3 4 4 3 3 5
10 10 11 11 11 11 8 8 8 9 10 10 10 9 7 7 4 3 3 3 6 4 4 4 4 4 4 2 2 4 2 4 6
12 12 12 11 11 11 11 10 10 10 10 9 9 9 6 4 3 1 2 5 9 7 5 4 3 4 4 5 6 6 6 5 5
13 12 12 12 12 11 11 10 10 9 9 8 9 7 4 2 2 3 5 9 9 7 3 4 6 4 6 7 7 6 7 6 6
13 12 12 12 11 10 10 10 10 9 8 8 7 4 3 3 4 5 7 8 9 8 7 6 6 7 7 7 8 9 9 9 9
13 13 12 12 11 11 10 9 9 8 7 6 4 2 4 4 6 7 8 9 9 6 7 7 8 8 9 9 10 11 11 11 11
15 14 13 12 12 11 11 10 8 7 6 5 4 4 6 7 9 9 9 9 9 10 10 8 8 8 10 10 9 9 9 10 9
16 13 12 12 12 11 10 9 8 6 6 6 6 6 7 9 10 10 9 10 11 13 10 8 8 9 9 9 9 8 9 10 10
15 13 12 12 13 12 10 10 8 7 8 9 9 7 8 9 11 10 9 9 10 10 9 8 8 8 8 10 10 10 11 12 14
15 14 14 14 14 13 10 9 9 10 11 10 9 8 9 10 10 10 9 8 7 8 8 7 7 7 9 11 13 14 14 15 15
15 17 18 15 15 14 12 11 12 12 12 10 9 10 10 11 10 10 8 7 7 7 7 7 8 8 13 10 12 15 16 16 16
17 21 20 17 17 15 15 15 14 12 11 9 9 10 9 11 10 8 8 7 6 7 8 9 11 13 11 11 13 16 17 17 17
22 24 21 19 19 18 18 15 13 11 10 9 9 10 9 9 8 7 7 7 7 6 9 11 12 12 12 15 17 16 17 19 20
26 25 24 22 22 22 20 16 13 12 11 10 10 9 9 8 8 7 8 7 8 9 12 11 12 13 16 17 18 18 18 21 21
29 28 28 26 24 22 20 17 14 14 13 10 9 9 8 7 6 7 7 9 10 11 12 14 15 17 20 20 19 20 20 20 20
28 31 31 29 27 25 22 19 17 15 14 10 9 6 7 7 8 10 11 11 12 12 14 17 19 22 24 22 23 22 21 22 20
29 28 31 31 30 26 23 21 18 17 15 11 8 5 5 6 10 10 13 13 13 14 17 19 22 26 24 25 24 24 25 23 19
32 31 33 34 31 28 25 22 20 17 15 12 12 10 10 6 5 8 11 14 15 16 18 24 23 24 22 23 23 26 24 23 20
37 34 37 36 28 27 26 22 21 17 16 13 12 11 11 10 10 11 11 14 17 21 21 21 22 22 21 25 25 25 24 25 24
Wind_Direction
152 150 154 160 161 157 157 161 172 183 170 120 120 112 103 87 90 75 42 40 30 26 17 25 34 35 7 359 341 321 323 328 308
151 148 154 162 170 179 180 180 185 157 129 126 124 123 119 89 82 32 29 42 16 43 54 53 50 47 29 327 300 303 285 279 290
148 146 146 149 153 162 162 151 136 125 122 125 130 139 133 109 106 55 46 29 330 324 310 303 324 312 290 301 40 51 15 255 262
145 140 138 137 137 139 136 132 128 124 123 125 129 148 158 144 122 91 291 306 315 317 318 334 283 291 298 288 279 278 275 278 275
150 147 145 142 142 140 140 138 137 133 130 132 143 164 185 203 179 227 286 300 302 307 311 273 291 296 294 305 308 308 306 299 288
158 156 154 151 150 149 148 149 148 141 142 149 167 192 220 239 252 282 292 295 298 295 287 296 295 293 305 303 305 303 299 295 290
167 165 165 161 161 160 162 166 166 165 162 168 188 238 274 282 288 291 293 297 289 283 291 294 294 296 301 303 303 301 300 296 295
176 176 175 173 173 175 177 180 182 181 191 206 238 279 283 284 284 284 289 294 277 281 311 298 295 299 305 308 308 310 311 309 309
182 182 185 184 183 185 183 186 193 208 224 245 260 270 269 276 285 290 290 282 278 293 302 300 302 304 307 311 311 312 311 310 310
189 191 194 193 191 194 198 202 213 238 242 247 256 259 278 288 291 295 294 284 284 285 288 294 298 300 305 309 312 311 308 310 311
201 208 201 201 199 206 208 216 235 245 256 256 260 269 282 290 298 299 300 294 292 294 291 295 300 304 308 311 309 307 306 305 305
209 211 207 210 210 210 218 231 239 247 251 252 263 282 294 299 303 302 301 300 302 300 297 299 303 305 309 309 309 308 308 308 307
217 213 211 215 215 218 223 233 243 248 242 250 273 286 291 297 302 300 298 300 299 294 295 305 307 311 307 306 312 310 306 305 305
219 215 215 220 221 224 228 232 241 243 236 254 275 283 288 300 301 302 297 294 300 303 306 311 309 313 315 313 312 308 305 305 305
219 218 218 227 226 227 229 231 241 236 240 256 269 278 286 292 302 302 294 292 301 303 309 307 308 312 319 316 312 308 304 305 306
220 222 223 231 231 233 229 232 237 233 239 253 265 273 272 269 281 289 272 290 290 298 300 305 309 311 315 313 312 309 307 305 306
228 226 228 232 230 229 229 233 234 233 238 247 263 259 269 256 278 273 272 274 281 293 298 305 308 311 312 309 309 307 305 305 305
228 231 232 233 235 233 233 231 235 237 241 250 249 252 241 275 270 256 256 264 272 287 294 299 302 303 303 303 303 303 306 307 307
236 233 231 234 235 230 230 233 242 240 247 256 262 257 271 272 266 264 261 265 270 277 289 295 295 298 300 301 300 302 302 301 304
237 235 230 232 233 227 226 235 241 235 237 252 262 263 270 268 267 279 266 267 273 282 292 295 299 300 299 302 303 301 298 298 301